Date,TemperatureHighF,TemperatureAvgF,TemperatureLowF,DewpointHighF,DewpointAvgF,DewpointLowF,HumidityHigh,HumidityAvg,HumidityLow,PressureMaxIn,PressureMinIn,WindSpeedMaxMPH,WindSpeedAvgMPH,GustSpeedMaxMPH,PrecipitationSumIn
2013-2-1,47,31,19,22,14,6,73,52,32,30.41,30.12,6,2,12,0.00
2013-2-2,62,42,27,36,29,21,83,61,36,30.24,30.12,5,1,9,0.00
2013-2-3,61,49,35,32,29,25,70,49,29,30.26,29.90,5,2,9,0.00
2013-2-4,71,56,42,43,37,32,70,49,30,29.93,29.80,6,3,11,0.06
2013-2-5,71,48,31,45,34,27,87,62,27,30.00,29.89,3,1,6,0.00
2013-2-6,69,52,34,52,40,29,85,67,51,30.02,29.86,7,3,14,0.00
2013-2-7,63,53,42,55,48,37,89,82,71,30.11,29.81,5,3,12,0.03
2013-2-8,54,42,36,37,34,31,86,75,50,30.28,30.11,7,2,12,0.00
2013-2-9,45,42,37,42,37,32,91,81,68,30.12,29.73,7,4,15,0.06
2013-2-10,65,53,39,51,37,27,94,59,27,30.03,29.62,8,4,18,0.11
2013-2-11,56,42,32,30,27,24,74,57,34,30.18,30.03,5,2,8,0.00
2013-2-12,45,38,33,38,32,26,91,78,59,30.09,29.93,5,2,9,0.31
2013-2-13,59,44,35,39,34,29,91,71,39,30.02,29.91,5,2,10,0.03
2013-2-14,63,47,33,39,32,26,79,58,39,30.17,29.93,6,2,9,0.00
2013-2-15,48,38,29,32,22,15,74,54,28,30.36,30.15,6,3,11,0.00
2013-2-16,49,37,27,27,20,14,75,50,31,30.34,30.03,6,3,11,0.00
2013-2-17,72,52,29,38,31,21,80,49,26,30.03,29.75,8,4,15,0.00
2013-2-18,63,53,39,40,33,26,60,47,39,30.11,29.66,12,6,21,0.00
2013-2-19,54,41,27,29,25,20,79,54,34,30.30,30.10,4,1,8,0.00
2013-2-20,39,36,33,33,29,22,91,76,52,30.23,29.98,4,2,8,0.50
2013-2-21,38,35,29,35,32,23,92,88,76,29.98,29.67,9,3,14,0.92
2013-2-22,42,31,22,26,21,17,80,66,49,30.12,29.93,7,3,11,0.00
2013-2-23,49,34,22,27,22,16,83,63,40,30.09,29.92,3,1,6,0.00
2013-2-24,63,44,27,42,32,22,84,65,44,29.94,29.73,8,2,17,0.00
2013-2-25,46,41,34,38,36,32,91,82,65,29.80,29.48,11,5,16,1.25
2013-2-26,45,38,34,36,33,29,92,81,67,29.89,29.50,8,5,15,0.20
2013-2-27,51,39,32,35,30,27,84,69,44,30.11,29.88,9,4,18,0.00
2013-2-28,50,39,32,33,29,26,81,68,52,30.18,30.10,6,4,11,0.00